Weather in Kopayhorod

Ukraine / Vinnytsia Region     48°51′12″N   27°48′02″E
temp.,
°C
wind,
m/s
gust,
m/s
humid.,
%
clouds,
%
prec.,
mm/h
press.,
hPa
HPBL,
m
25 january, mon
mon2523:00+2sse339527 0.0 100235
02:00+1se349524 0.0 100266
05:00+2ese51093100 0.0 1001192
08:00+2se7169094 0.0 998417
11:00+4se81595100 0.0 996618
14:00+5se61397100 1.6 993427
17:00+4ssw35100100 2.8 993105
20:00+3wnw71493100 5.8 993744
26 january, tue
tue2623:000w81593100 3.4 995693
02:000w81484100 3.4 998885
05:000wsw8158387 0.0 1000832
08:000wsw7128383 0.0 1003916
11:00+1w71079100 0.1 10061076
14:00+1w7107799 0.1 1007908
17:00−1wnw4108353 0.0 1009384
20:00−1nw4108251 0.0 1010519
27 january, wed
wed2723:00−2wnw31085100 0.0 1011552
02:00−2nw3887100 0.0 1012499
05:00−2nnw4984100 0.0 1011528
08:00−2n51083100 0.0 1010592
11:00−2n61084100 0.1 1010655
14:00−1nne71185100 0.5 1008777
17:00−2n81293100 1.6 1007777
20:00−2n81494100 4.5 1006800
28 january, thu
thu2823:00−2n101691100 2.3 1005847
02:00−2n81495100 3.0 1004761
05:00−2n91689100 0.6 1003753
08:00−2n91689100 0.8 1002797
11:00−2nnw91594100 0.6 1002809
14:00−2nnw81396100 4.4 1002783
17:00−2nnw71396100 4.2 1002677
20:00−3nnw71395100 6.1 1003581
29 january, fri
fri2923:00−3nw61191100 0.7 1004490
02:00−7nw489599 0.7 1005152
05:00−4wnw2394100 0.0 100571
08:00−5w1295100 0.0 100522
11:00−3sw2495100 0.0 1005213
14:00−1ssw3593100 0.0 1003288
17:00−4sse339399 0.0 100350
20:00−5sse3593100 0.0 1002105